Regional Weather Roundup
Issued by NWS

Home | Current Version | Previous Version | Text Only | Print | Product List | Glossary Off
Versions: 1 2 3 4 5 6 7 8 9 10 11 12 13 14 15 16 17 18 19 20 21 22 23 24 25 26 27 28 29 30 31 32 33 34 35 36 37 38 39 40 41 42 43 44 45 46 47 48 49 50

000
ASUS43 KMPX 050710
RWRMN
WEATHER ROUNDUP FOR MINNESOTA
NATIONAL WEATHER SERVICE TWIN CITIES/CHANHASSEN MN
200 AM CDT SUN JUL 05 2015


NOTE: "FAIR" INDICATES FEW OR NO CLOUDS BELOW 12,000 FEET WITH NO
SIGNIFICANT WEATHER AND/OR OBSTRUCTIONS TO VISIBILITY. N/A MEANS
CURRENT SKY AND/OR WEATHER CONDITIONS ARE NOT AVAILABLE.

MNZ060>063-068>070-050800-
   Twin Cities Metro

CITY           SKY/WX    TMP DP  RH WIND       PRES   REMARKS
TWIN CITIES    CLEAR     71  60  68 S12       29.93F
CRYSTAL        CLEAR     71  60  68 S8        29.90F
BLAINE         CLEAR     70  63  78 SE6       29.92S
LAKEVILLE      CLEAR     63  61  94 S5        29.94F
EDEN PRAIRIE   CLEAR     68  60  75 S8        29.91F
SOUTH ST PAUL  CLEAR     67  61  80 S3        29.93F HAZE
LAKE ELMO      FAIR      68  61  77 S9        29.94F
$$
MNZ001>005-007-008-013>017-022>024-027-028-050800-
   Northwest Minnesota

CITY           SKY/WX    TMP DP  RH WIND       PRES   REMARKS
BEMIDJI        MOCLDY    71  64  80 S8        29.81F
HALLOCK        CLOUDY    66  64  94 E13       29.75R
ROSEAU         TSTM      63  57  82 NW3       29.84R
WARROAD        RAIN      64  61  88 W3        29.83R
THIEF RVR FALL CLOUDY    66  63  88 N18G30    29.86R THUNDER
CROOKSTON      CLOUDY    66  64  94 N12G24    29.84R
FOSSTON        CLOUDY    70  63  78 S5        29.81R
DETROIT LAKES  MOCLDY    72  63  73 S8        29.84S
MOORHEAD       MOCLDY    72  64  78 S8        29.80R
PARK RAPIDS    MOCLDY    70  63  78 SE7       29.85S HAZE
MAHNOMEN       FAIR      71  64  79 S8        29.81R
$$
MNZ006-009>011-018-025>026-050800-
   North Central Minnesota

CITY           SKY/WX    TMP DP  RH WIND       PRES   REMARKS
BAUDETTE       CLOUDY    63  60  90 SE6       29.82F
INTL FALLS     CLOUDY    64  61  90 VRB5      29.82F
WASKISH        LGT RAIN  66  61  82 NE7G16    29.85R
BIG FORK       MOCLDY    64  63  94 SE5       29.87S FOG
LONGVILLE      PTCLDY    70  64  83 S6        29.87R FOG
GRAND RAPIDS   PTCLDY    63  59  88 SE3       29.90R
CRANE LAKE     CLOUDY    64  57  77 NW10G16   29.91R
ORR            CLOUDY    63  55  77 CALM      29.87S
COOK           MOCLDY    63  57  82 CALM      29.89F
WALKER         FAIR      70  64  83 S6        29.85F
$$
MNZ012-019>021-037-050800-
   Northeast Minnesota

CITY           SKY/WX    TMP DP  RH WIND       PRES   REMARKS
DULUTH         PTCLDY    57  54  89 E7        29.92S
ELY            MOCLDY    61  54  77 CALM      29.91R
HIBBING        MOCLDY    57  55  93 CALM      29.90R
DULUTH HARBOR  CLEAR     61  57  88 NE7       29.91F
TWO HARBORS    PTCLDY    57  54  88 N1        29.91S
SILVER BAY     CLEAR     55  54  94 CALM      29.90S
GRAND MARAIS     N/A     53  50  89 CALM      29.90F
G MARAIS ARPRT PTCLDY    57  50  77 E3        29.94F
$$
MNZ029>031-032-039>041-046>048-054>057-064-050800-
   West Central Minnesota

CITY           SKY/WX    TMP DP  RH WIND       PRES   REMARKS
FERGUS FALLS   MOCLDY    70  64  83 S9        29.82R
WHEATON        MOCLDY    70  63  78 SE10      29.82F
MORRIS         PTCLDY    70  64  83 S9        29.84S HAZE
ALEXANDRIA     MOCLDY    69  64  84 S10       29.88R
ELBOW LAKE     FAIR      68  64  88 S10       29.84S
WADENA         MOCLDY    66  63  88 S6        29.86R HAZE
GLENWOOD       PTCLDY    66  63  88 S7        29.89R
APPLETON       PTCLDY    72  63  73 S8        29.84R
BENSON         MOCLDY    68  63  83 S7        29.87R
ORTONVILLE     PTCLDY    68  63  83 SE7       29.84R
MADISON        PTCLDY    70  63  78 SE8       29.84S
WILLMAR        FAIR      68  63  83 S3        29.90R
$$
MNZ033>034-036-042>043-049>051-058-059-050800-
   Central Minnesota

CITY           SKY/WX    TMP DP  RH WIND       PRES   REMARKS
ST CLOUD       CLEAR     68  62  81 S9        29.88F
SAUK CENTRE    FAIR      64  63  94 CALM      29.89R FOG
PAYNESVILLE    CLEAR     65  61  86 SE5       29.91R
AITKIN         PTCLDY    72  64  78 S8        29.87R
PINE RIVER     PTCLDY    68  64  88 SE5       29.91R
BRAINERD       PTCLDY    69  63  81 S9        29.89R HAZE
STAPLES        PTCLDY    66  63  88 S7        29.86S
LONG PRAIRIE   FAIR      64  63  94 S6        29.90R
LITTLE FALLS   PTCLDY    68  61  77 S6        29.89R
LITCHFIELD     CLEAR     70  64  83 S5        29.90S
BUFFALO        CLEAR     68  60  75 S6        29.91S
MAPLE LAKE     CLEAR     67  63  85 S5        29.91R
$$
MNZ037-044-045-052-053-050800-
   East Central Minnesota

CITY           SKY/WX    TMP DP  RH WIND       PRES   REMARKS
PRINCETON      CLEAR     70  63  78 S7        29.90S
MORA           CLEAR     68  61  77 S5        29.91S
CAMBRIDGE      CLEAR     72  59  64 CALM      29.89S
RUSH CITY      PTCLDY    67  63  88 S5        29.91S
MOOSE LAKE     MOCLDY    57  55  94 NE3       29.89R FOG
HINCKLEY       FAIR      68  64  88 S5        29.90F
CLOQUET        CLOUDY    57  55  94 E5        29.92R FOG
MCGREGOR       PTCLDY    64  63  94 SE5       29.88S
$$
MNZ071>073-080-081-089-090-097-098-050800-
   Southwest Minnesota

CITY           SKY/WX    TMP DP  RH WIND       PRES   REMARKS
MONTEVIDEO     MOCLDY    70  63  78 S8        29.87R
GRANITE FALLS  PTCLDY    67  62  82 SE8       29.89R
CANBY          PTCLDY    70  63  80 SE7       29.86R
MARSHALL       PTCLDY    68  59  73 S10       29.86S
REDWOOD FALLS  PTCLDY    66  60  81 S13       29.89S
OLIVIA         PTCLDY    63  57  82 SE7       29.89R
PIPESTONE      PTCLDY    68  63  83 S12       29.90S
WINDOM         CLEAR     66  61  82 S6        29.93R
WORTHINGTON    PTCLDY    66  57  72 S13       29.92F
JACKSON        CLEAR     64  61  88 S8        29.95S
TRACY          PTCLDY    68  62  79 S14       29.89S
SLAYTON        PTCLDY    66  62  86 CALM      29.92S
$$
MNZ065>067-074>077-082>085-091>093-050800-
   South Central Minnesota

CITY           SKY/WX    TMP DP  RH WIND       PRES   REMARKS
MANKATO        CLEAR     64  57  77 S8        29.93F
NEW ULM        CLEAR     64  61  88 S8        29.92R
ST JAMES       CLEAR     66  61  82 S10       29.93S
FAIRMONT       CLEAR     63  55  77 S8        29.94S
GLENCOE        CLEAR     66  62  86 SE3       29.91S
FARIBAULT      CLEAR     66  61  82 S5        29.95F
OWATONNA       CLEAR     66  59  77 S12       29.96F
WASECA         CLEAR     63  57  82 SE8       29.96F
ALBERT LEA     CLEAR     66  61  82 S8        29.97F
$$
MNZ078>079-086>088-094>096-050800-
   Southeast Minnesota

CITY           SKY/WX    TMP DP  RH WIND       PRES   REMARKS
ROCHESTER      CLEAR     61  58  90 S8        30.01F
RED WING       CLEAR     68  61  77 CALM      29.95F
STANTON        CLEAR     66  59  77 SW5       29.94F
DODGE CENTER   PTCLDY    64  61  88 S8        29.98F
WINONA         CLEAR     66  63  88 CALM      30.00S
AUSTIN         CLEAR     64  61  88 S5        29.99F
PRESTON        CLEAR     63  59  85 S6        30.02F
$$
ABBREVIATIONS USED IN REMARKS
   TC - TEMPERATURES IN CELSIUS
  WCI - WIND CHILL INDEX
   HX - HEAT INDEX
  VSB - VISIBILITY
$$



USA.gov is the U.S. government's official web portal to all federal, state and local government web resources and services.